Time,TemperatureF,DewpointF,PressureIn,WindDirection,WindDirectionDegrees,WindSpeedMPH,WindSpeedGustMPH,Humidity,HourlyPrecipIn,Conditions,Clouds,dailyrainin,SolarRadiationWatts/m^2,SoftwareType,DateUTC
2013-08-04 00:00:00,63.6,60.9,30.11,NNW,334,0.0,0.0,91,0.00,,,0.00,0,Wunderground v.1.15,2013-08-04 05:00:00,
2013-08-04 00:05:00,63.5,60.8,30.11,NNW,334,0.0,0.0,91,0.00,,,0.00,0,Wunderground v.1.15,2013-08-04 05:05:00,
2013-08-04 00:10:00,63.4,60.7,30.11,NNW,334,0.0,0.0,91,0.00,,,0.00,0,Wunderground v.1.15,2013-08-04 05:10:00,
2013-08-04 00:14:00,63.3,60.6,30.12,NNW,334,0.0,0.0,91,0.00,,,0.00,0,Wunderground v.1.15,2013-08-04 05:14:00,
2013-08-04 00:25:00,63.3,60.6,30.12,NNW,334,0.0,0.0,91,0.00,,,0.00,0,Wunderground v.1.15,2013-08-04 05:25:00,
2013-08-04 00:30:00,63.3,60.6,30.12,NNW,334,0.0,0.0,91,0.00,,,0.00,0,Wunderground v.1.15,2013-08-04 05:30:00,
2013-08-04 00:35:00,63.3,60.6,30.12,NNW,334,0.0,0.0,91,0.00,,,0.00,0,Wunderground v.1.15,2013-08-04 05:35:00,
2013-08-04 00:40:00,63.3,60.6,30.12,NNW,334,0.0,0.0,91,0.00,,,0.00,0,Wunderground v.1.15,2013-08-04 05:40:00,
2013-08-04 00:45:00,63.2,60.5,30.12,NNW,334,0.0,0.0,91,0.00,,,0.00,0,Wunderground v.1.15,2013-08-04 05:45:00,
2013-08-04 00:55:00,62.9,60.2,30.12,NNW,334,0.0,0.0,91,0.00,,,0.00,0,Wunderground v.1.15,2013-08-04 05:55:00,
2013-08-04 00:59:00,62.7,60.0,30.12,NNW,334,0.0,0.0,91,0.00,,,0.00,0,Wunderground v.1.15,2013-08-04 05:59:00,
2013-08-04 01:05:00,62.6,59.9,30.12,NNW,334,0.0,0.0,91,0.00,,,0.00,0,Wunderground v.1.15,2013-08-04 06:05:00,
2013-08-04 01:10:00,62.4,59.7,30.12,NNW,334,0.0,0.0,91,0.00,,,0.00,0,Wunderground v.1.15,2013-08-04 06:10:00,
2013-08-04 01:15:00,62.3,59.6,30.12,NNW,334,0.0,0.0,91,0.00,,,0.00,0,Wunderground v.1.15,2013-08-04 06:15:00,
2013-08-04 01:20:00,62.1,59.4,30.12,NNW,334,0.0,0.0,91,0.00,,,0.00,0,Wunderground v.1.15,2013-08-04 06:20:00,
2013-08-04 01:30:00,61.9,59.2,30.13,NNW,334,0.0,0.0,91,0.00,,,0.00,0,Wunderground v.1.15,2013-08-04 06:30:00,
2013-08-04 01:34:00,61.7,59.0,30.12,NNW,334,0.0,0.0,91,0.00,,,0.00,0,Wunderground v.1.15,2013-08-04 06:34:00,
2013-08-04 01:40:00,61.6,58.9,30.13,NNW,334,0.0,0.0,91,0.00,,,0.00,0,Wunderground v.1.15,2013-08-04 06:40:00,
2013-08-04 01:45:00,61.5,59.2,30.13,NNW,334,0.0,0.0,92,0.00,,,0.00,0,Wunderground v.1.15,2013-08-04 06:45:00,
2013-08-04 01:50:00,61.3,58.7,30.13,NNW,334,0.0,0.0,91,0.00,,,0.00,0,Wunderground v.1.15,2013-08-04 06:50:00,
2013-08-04 02:00:00,61.1,58.8,30.13,NNW,334,0.0,0.0,92,0.00,,,0.00,0,Wunderground v.1.15,2013-08-04 07:00:00,
2013-08-04 02:05:00,61.0,58.7,30.13,NNW,334,0.0,0.0,92,0.00,,,0.00,0,Wunderground v.1.15,2013-08-04 07:05:00,
2013-08-04 02:10:00,60.9,58.6,30.13,NNW,334,0.0,0.0,92,0.00,,,0.00,0,Wunderground v.1.15,2013-08-04 07:10:00,
2013-08-04 02:15:00,60.9,58.6,30.12,NNW,334,0.0,0.0,92,0.00,,,0.00,0,Wunderground v.1.15,2013-08-04 07:15:00,
2013-08-04 02:20:00,60.9,58.6,30.13,NNW,334,0.0,0.0,92,0.00,,,0.00,0,Wunderground v.1.15,2013-08-04 07:20:00,
2013-08-04 02:25:00,60.8,58.5,30.12,NNW,334,0.0,0.0,92,0.00,,,0.00,0,Wunderground v.1.15,2013-08-04 07:25:00,
2013-08-04 02:34:00,60.6,58.6,30.12,NNW,334,0.0,0.0,93,0.00,,,0.00,0,Wunderground v.1.15,2013-08-04 07:34:00,
2013-08-04 02:40:00,60.5,58.5,30.12,NNW,334,0.0,0.0,93,0.00,,,0.00,0,Wunderground v.1.15,2013-08-04 07:40:00,
2013-08-04 02:45:00,60.4,58.4,30.12,NNW,334,0.0,0.0,93,0.00,,,0.00,0,Wunderground v.1.15,2013-08-04 07:45:00,
2013-08-04 02:49:00,60.4,58.4,30.12,NNW,334,0.0,0.0,93,0.00,,,0.00,0,Wunderground v.1.15,2013-08-04 07:49:00,
2013-08-04 02:55:00,60.2,58.2,30.12,NNW,334,0.0,0.0,93,0.00,,,0.00,0,Wunderground v.1.15,2013-08-04 07:55:00,
2013-08-04 03:05:00,60.0,58.0,30.12,NNW,334,0.0,0.0,93,0.00,,,0.00,0,Wunderground v.1.15,2013-08-04 08:05:00,
2013-08-04 03:10:00,60.0,58.0,30.11,NNW,334,0.0,0.0,93,0.00,,,0.00,0,Wunderground v.1.15,2013-08-04 08:10:00,
2013-08-04 03:15:00,59.9,57.9,30.11,NNW,334,0.0,0.0,93,0.00,,,0.00,0,Wunderground v.1.15,2013-08-04 08:15:00,
2013-08-04 03:20:00,59.9,58.2,30.11,NNW,334,0.0,0.0,94,0.00,,,0.00,0,Wunderground v.1.15,2013-08-04 08:20:00,
2013-08-04 03:25:00,59.9,58.2,30.11,NNW,334,0.0,0.0,94,0.00,,,0.00,0,Wunderground v.1.15,2013-08-04 08:25:00,
2013-08-04 03:30:00,59.8,57.8,30.11,NNW,334,0.0,0.0,93,0.00,,,0.00,0,Wunderground v.1.15,2013-08-04 08:30:00,
2013-08-04 03:40:00,59.8,57.8,30.11,NNW,334,0.0,0.0,93,0.00,,,0.00,0,Wunderground v.1.15,2013-08-04 08:40:00,
2013-08-04 03:45:00,59.7,57.7,30.11,NNW,334,0.0,0.0,93,0.00,,,0.00,0,Wunderground v.1.15,2013-08-04 08:45:00,
2013-08-04 03:50:00,59.7,57.7,30.10,NNW,334,0.0,0.0,93,0.00,,,0.00,0,Wunderground v.1.15,2013-08-04 08:50:00,
2013-08-04 03:54:00,59.6,57.6,30.10,NNW,334,0.0,0.0,93,0.00,,,0.00,0,Wunderground v.1.15,2013-08-04 08:54:00,
2013-08-04 04:00:00,59.6,57.6,30.10,NNW,334,0.0,0.0,93,0.00,,,0.00,0,Wunderground v.1.15,2013-08-04 09:00:00,
2013-08-04 04:10:00,59.5,57.8,30.11,NNW,334,0.0,0.0,94,0.00,,,0.00,0,Wunderground v.1.15,2013-08-04 09:10:00,
2013-08-04 04:15:00,59.5,57.5,30.11,NNW,334,0.0,0.0,93,0.00,,,0.00,0,Wunderground v.1.15,2013-08-04 09:15:00,
2013-08-04 04:20:00,59.5,57.8,30.11,NNW,334,0.0,0.0,94,0.00,,,0.00,0,Wunderground v.1.15,2013-08-04 09:20:00,
2013-08-04 04:25:00,59.4,57.7,30.12,NNW,334,0.0,0.0,94,0.00,,,0.00,0,Wunderground v.1.15,2013-08-04 09:25:00,
2013-08-04 04:30:00,59.4,57.4,30.12,NNW,334,0.0,0.0,93,0.00,,,0.00,0,Wunderground v.1.15,2013-08-04 09:30:00,
2013-08-04 04:39:00,59.3,57.3,30.13,NNW,334,0.0,0.0,93,0.00,,,0.00,0,Wunderground v.1.15,2013-08-04 09:39:00,
2013-08-04 04:44:00,59.3,57.3,30.13,NNW,334,0.0,0.0,93,0.00,,,0.00,0,Wunderground v.1.15,2013-08-04 09:44:00,
2013-08-04 04:50:00,59.2,57.2,30.13,NNW,334,0.0,0.0,93,0.00,,,0.00,0,Wunderground v.1.15,2013-08-04 09:50:00,
2013-08-04 04:55:00,59.2,57.2,30.13,NNW,334,0.0,0.0,93,0.00,,,0.00,0,Wunderground v.1.15,2013-08-04 09:55:00,
2013-08-04 05:00:00,59.2,57.2,30.13,NNW,334,0.0,0.0,93,0.00,,,0.00,0,Wunderground v.1.15,2013-08-04 10:00:00,
2013-08-04 05:10:00,59.1,57.1,30.13,NNW,334,0.0,0.0,93,0.00,,,0.00,0,Wunderground v.1.15,2013-08-04 10:10:00,
2013-08-04 05:15:00,59.1,57.1,30.13,NNW,334,0.0,0.0,93,0.00,,,0.00,0,Wunderground v.1.15,2013-08-04 10:15:00,
2013-08-04 05:20:00,59.1,57.1,30.13,NNW,334,0.0,0.0,93,0.00,,,0.00,0,Wunderground v.1.15,2013-08-04 10:20:00,
2013-08-04 05:25:00,59.1,57.1,30.14,NNW,334,0.0,0.0,93,0.00,,,0.00,0,Wunderground v.1.15,2013-08-04 10:25:00,
2013-08-04 05:30:00,59.1,57.1,30.13,NNW,334,0.0,0.0,93,0.00,,,0.00,0,Wunderground v.1.15,2013-08-04 10:30:00,
2013-08-04 05:35:00,59.0,57.6,30.14,NNW,334,0.0,0.0,95,0.00,,,0.00,0,Wunderground v.1.15,2013-08-04 10:35:00,
2013-08-04 05:40:00,59.0,56.7,30.14,NNW,334,0.0,0.0,92,0.00,,,0.00,0,Wunderground v.1.15,2013-08-04 10:40:00,
2013-08-04 05:50:00,58.9,56.9,30.14,NNW,334,0.0,0.0,93,0.00,,,0.00,0,Wunderground v.1.15,2013-08-04 10:50:00,
2013-08-04 05:55:00,58.9,56.9,30.14,NNW,334,0.0,0.0,93,0.00,,,0.00,0,Wunderground v.1.15,2013-08-04 10:55:00,
2013-08-04 06:00:00,58.9,56.9,30.14,NNW,334,0.0,0.0,93,0.00,,,0.00,0,Wunderground v.1.15,2013-08-04 11:00:00,
2013-08-04 06:10:00,58.9,56.9,30.14,NNW,334,0.0,0.0,93,0.00,,,0.00,9,Wunderground v.1.15,2013-08-04 11:10:00,
2013-08-04 06:15:00,58.8,56.8,30.15,NNW,334,0.0,0.0,93,0.00,,,0.00,12,Wunderground v.1.15,2013-08-04 11:15:00,
2013-08-04 06:20:00,58.8,56.8,30.14,NNW,334,0.0,0.0,93,0.00,,,0.00,16,Wunderground v.1.15,2013-08-04 11:20:00,
2013-08-04 06:25:00,58.9,56.9,30.14,NNW,334,0.0,0.0,93,0.00,,,0.00,23,Wunderground v.1.15,2013-08-04 11:25:00,
2013-08-04 06:30:00,58.9,56.9,30.14,NNW,334,0.0,0.0,93,0.00,,,0.00,32,Wunderground v.1.15,2013-08-04 11:30:00,
2013-08-04 06:35:00,59.1,57.1,30.14,NNW,334,0.0,0.0,93,0.00,,,0.00,40,Wunderground v.1.15,2013-08-04 11:35:00,
2013-08-04 06:40:00,59.3,57.3,30.14,NNW,334,0.0,0.0,93,0.00,,,0.00,53,Wunderground v.1.15,2013-08-04 11:40:00,
2013-08-04 06:45:00,59.5,57.5,30.15,NNW,334,0.0,0.0,93,0.00,,,0.00,65,Wunderground v.1.15,2013-08-04 11:45:00,
2013-08-04 06:55:00,60.0,57.7,30.14,NNW,334,0.0,0.0,92,0.00,,,0.00,91,Wunderground v.1.15,2013-08-04 11:55:00,
2013-08-04 07:00:00,60.4,58.1,30.15,NNW,334,0.0,0.0,92,0.00,,,0.00,105,Wunderground v.1.15,2013-08-04 12:00:00,
2013-08-04 07:09:00,61.1,58.8,30.15,NNW,334,0.0,0.0,92,0.00,,,0.00,141,Wunderground v.1.15,2013-08-04 12:09:00,
2013-08-04 07:15:00,61.5,59.2,30.15,NNW,334,0.0,0.0,92,0.00,,,0.00,158,Wunderground v.1.15,2013-08-04 12:15:00,
2013-08-04 07:19:00,62.1,59.4,30.14,NNW,334,0.0,0.0,91,0.00,,,0.00,172,Wunderground v.1.15,2013-08-04 12:19:00,
2013-08-04 07:25:00,62.8,60.1,30.14,NNW,334,0.0,0.0,91,0.00,,,0.00,193,Wunderground v.1.15,2013-08-04 12:25:00,
2013-08-04 07:30:00,63.2,60.2,30.14,NNW,334,0.0,0.0,90,0.00,,,0.00,207,Wunderground v.1.15,2013-08-04 12:30:00,
2013-08-04 07:35:00,63.7,60.7,30.14,NNW,334,0.0,0.0,90,0.00,,,0.00,227,Wunderground v.1.15,2013-08-04 12:35:00,
2013-08-04 07:40:00,64.1,60.5,30.14,NNW,334,0.0,0.0,88,0.00,,,0.00,246,Wunderground v.1.15,2013-08-04 12:40:00,
2013-08-04 07:45:00,64.6,60.3,30.15,NNW,334,0.0,0.0,86,0.00,,,0.00,265,Wunderground v.1.15,2013-08-04 12:45:00,
2013-08-04 07:50:00,65.0,60.7,30.15,NNW,334,0.0,0.0,86,0.00,,,0.00,272,Wunderground v.1.15,2013-08-04 12:50:00,
2013-08-04 08:00:00,65.9,60.2,30.15,NNW,336,0.0,0.0,82,0.00,,,0.00,325,Wunderground v.1.15,2013-08-04 13:00:00,
2013-08-04 08:10:00,66.6,60.2,30.15,NNW,336,0.0,0.0,80,0.00,,,0.00,330,Wunderground v.1.15,2013-08-04 13:10:00,
2013-08-04 08:15:00,66.9,60.2,30.16,NNW,337,0.0,0.0,79,0.00,,,0.00,359,Wunderground v.1.15,2013-08-04 13:15:00,
2013-08-04 08:20:00,67.3,60.9,30.16,NNW,337,0.0,0.0,80,0.00,,,0.00,413,Wunderground v.1.15,2013-08-04 13:20:00,
2013-08-04 08:25:00,67.7,60.6,30.16,NNW,337,0.0,0.0,78,0.00,,,0.00,394,Wunderground v.1.15,2013-08-04 13:25:00,
2013-08-04 08:30:00,68.2,61.4,30.16,NNW,337,0.0,0.0,79,0.00,,,0.00,417,Wunderground v.1.15,2013-08-04 13:30:00,
2013-08-04 08:35:00,68.5,61.4,30.16,NNW,337,0.0,0.0,78,0.00,,,0.00,441,Wunderground v.1.15,2013-08-04 13:35:00,
2013-08-04 08:40:00,68.8,60.9,30.16,North,349,0.0,0.0,76,0.00,,,0.00,483,Wunderground v.1.15,2013-08-04 13:40:00,
2013-08-04 08:50:00,69.1,60.8,30.16,NNE,17,1.0,1.0,75,0.00,,,0.00,404,Wunderground v.1.15,2013-08-04 13:50:00,
2013-08-04 08:55:00,69.3,60.3,30.16,NNE,18,1.0,1.0,73,0.00,,,0.00,524,Wunderground v.1.15,2013-08-04 13:55:00,
2013-08-04 09:00:00,69.7,61.0,30.16,NNE,18,0.0,0.0,74,0.00,,,0.00,527,Wunderground v.1.15,2013-08-04 14:00:00,
2013-08-04 09:10:00,70.4,61.7,30.16,NNE,19,0.0,1.0,74,0.00,,,0.00,577,Wunderground v.1.15,2013-08-04 14:10:00,
2013-08-04 09:15:00,70.7,61.2,30.16,NE,40,1.0,4.0,72,0.00,,,0.00,580,Wunderground v.1.15,2013-08-04 14:15:00,
2013-08-04 09:20:00,70.9,61.4,30.16,NE,42,2.0,2.0,72,0.00,,,0.00,598,Wunderground v.1.15,2013-08-04 14:20:00,
2013-08-04 09:25:00,71.2,61.3,30.16,NE,43,1.0,2.0,71,0.00,,,0.00,550,Wunderground v.1.15,2013-08-04 14:25:00,
2013-08-04 09:29:00,71.6,62.1,30.16,ENE,57,1.0,1.0,72,0.00,,,0.00,471,Wunderground v.1.15,2013-08-04 14:29:00,
2013-08-04 09:40:00,72.2,60.6,30.16,ENE,65,2.0,5.0,67,0.00,,,0.00,677,Wunderground v.1.15,2013-08-04 14:40:00,
2013-08-04 09:45:00,72.4,60.8,30.16,ENE,65,2.0,5.0,67,0.00,,,0.00,671,Wunderground v.1.15,2013-08-04 14:45:00,
2013-08-04 09:49:00,72.8,61.6,30.16,ENE,66,1.0,1.0,68,0.00,,,0.00,619,Wunderground v.1.15,2013-08-04 14:49:00,
2013-08-04 09:55:00,73.2,61.2,30.16,ENE,71,2.0,6.0,66,0.00,,,0.00,686,Wunderground v.1.15,2013-08-04 14:55:00,
2013-08-04 09:59:00,73.5,61.0,30.16,ENE,76,3.0,4.0,65,0.00,,,0.00,722,Wunderground v.1.15,2013-08-04 14:59:00,
2013-08-04 10:05:00,73.6,60.7,30.16,ENE,76,3.0,4.0,64,0.00,,,0.00,694,Wunderground v.1.15,2013-08-04 15:05:00,
2013-08-04 10:09:00,73.7,60.8,30.17,ENE,76,1.0,2.0,64,0.00,,,0.00,717,Wunderground v.1.15,2013-08-04 15:09:00,
2013-08-04 10:15:00,74.0,59.7,30.17,ENE,77,1.0,4.0,61,0.00,,,0.00,701,Wunderground v.1.15,2013-08-04 15:15:00,
2013-08-04 10:20:00,74.3,60.0,30.17,East,83,2.0,3.0,61,0.00,,,0.00,715,Wunderground v.1.15,2013-08-04 15:20:00,
2013-08-04 10:25:00,74.7,60.8,30.17,East,83,1.0,3.0,62,0.00,,,0.00,742,Wunderground v.1.15,2013-08-04 15:25:00,
2013-08-04 10:30:00,75.0,60.6,30.16,East,84,1.0,1.0,61,0.00,,,0.00,795,Wunderground v.1.15,2013-08-04 15:30:00,
2013-08-04 10:35:00,75.3,61.4,30.17,East,84,0.0,1.0,62,0.00,,,0.00,570,Wunderground v.1.15,2013-08-04 15:35:00,
2013-08-04 10:45:00,76.2,62.2,30.16,East,84,0.0,0.0,62,0.00,,,0.00,693,Wunderground v.1.15,2013-08-04 15:45:00,
2013-08-04 10:50:00,76.4,61.0,30.16,East,88,2.0,2.0,59,0.00,,,0.00,844,Wunderground v.1.15,2013-08-04 15:50:00,
2013-08-04 10:55:00,76.4,60.5,30.17,East,101,3.0,3.0,58,0.00,,,0.00,816,Wunderground v.1.15,2013-08-04 15:55:00,
2013-08-04 10:59:00,76.4,61.5,30.16,ESE,102,3.0,3.0,60,0.00,,,0.00,754,Wunderground v.1.15,2013-08-04 15:59:00,
2013-08-04 11:05:00,76.4,60.5,30.16,ESE,106,3.0,3.0,58,0.00,,,0.00,793,Wunderground v.1.15,2013-08-04 16:05:00,
2013-08-04 11:14:00,76.6,59.7,30.16,ESE,107,2.0,2.0,56,0.00,,,0.00,668,Wunderground v.1.15,2013-08-04 16:14:00,
2013-08-04 11:19:00,76.6,60.7,30.17,ESE,111,2.0,2.0,58,0.00,,,0.00,668,Wunderground v.1.15,2013-08-04 16:19:00,
2013-08-04 11:25:00,76.7,61.8,30.17,ESE,111,1.0,2.0,60,0.00,,,0.00,603,Wunderground v.1.15,2013-08-04 16:25:00,
2013-08-04 11:30:00,76.8,61.9,30.17,ESE,111,1.0,1.0,60,0.00,,,0.00,431,Wunderground v.1.15,2013-08-04 16:30:00,
2013-08-04 11:35:00,76.8,58.4,30.17,ESE,111,0.0,1.0,53,0.00,,,0.00,629,Wunderground v.1.15,2013-08-04 16:35:00,
2013-08-04 11:40:00,76.8,60.9,30.17,ESE,111,0.0,3.0,58,0.00,,,0.00,798,Wunderground v.1.15,2013-08-04 16:40:00,
2013-08-04 11:50:00,76.9,58.5,30.17,ESE,111,1.0,1.0,53,0.00,,,0.00,812,Wunderground v.1.15,2013-08-04 16:50:00,
2013-08-04 11:55:00,77.2,59.3,30.16,ESE,111,0.0,1.0,54,0.00,,,0.00,772,Wunderground v.1.15,2013-08-04 16:55:00,
2013-08-04 12:00:00,77.4,60.5,30.16,ESE,111,0.0,3.0,56,0.00,,,0.00,745,Wunderground v.1.15,2013-08-04 17:00:00,
2013-08-04 12:04:00,77.5,59.0,30.16,ESE,111,0.0,3.0,53,0.00,,,0.00,596,Wunderground v.1.15,2013-08-04 17:04:00,
2013-08-04 12:10:00,77.6,60.7,30.16,ESE,111,0.0,0.0,56,0.00,,,0.00,918,Wunderground v.1.15,2013-08-04 17:10:00,
2013-08-04 12:20:00,77.9,58.3,30.16,ESE,111,1.0,1.0,51,0.00,,,0.00,1093,Wunderground v.1.15,2013-08-04 17:20:00,
2013-08-04 12:25:00,78.2,59.1,30.15,ESE,111,1.0,1.0,52,0.00,,,0.00,918,Wunderground v.1.15,2013-08-04 17:25:00,
2013-08-04 12:29:00,78.4,58.2,30.16,ESE,111,1.0,1.0,50,0.00,,,0.00,912,Wunderground v.1.15,2013-08-04 17:29:00,
2013-08-04 12:35:00,78.3,60.3,30.16,ESE,111,1.0,1.0,54,0.00,,,0.00,886,Wunderground v.1.15,2013-08-04 17:35:00,
2013-08-04 12:40:00,78.6,56.7,30.15,ESE,111,0.0,0.0,47,0.00,,,0.00,1032,Wunderground v.1.15,2013-08-04 17:40:00,
2013-08-04 12:45:00,78.9,56.4,30.15,ESE,111,0.0,3.0,46,0.00,,,0.00,962,Wunderground v.1.15,2013-08-04 17:45:00,
2013-08-04 12:55:00,78.9,59.2,30.15,ESE,112,1.0,4.0,51,0.00,,,0.00,691,Wunderground v.1.15,2013-08-04 17:55:00,
2013-08-04 13:00:00,78.9,62.4,30.15,ESE,112,0.0,0.0,57,0.00,,,0.00,656,Wunderground v.1.15,2013-08-04 18:00:00,
2013-08-04 13:05:00,78.9,59.8,30.14,ESE,112,0.0,0.0,52,0.00,,,0.00,777,Wunderground v.1.15,2013-08-04 18:05:00,
2013-08-04 13:10:00,79.0,60.9,30.14,ESE,112,0.0,0.0,54,0.00,,,0.00,773,Wunderground v.1.15,2013-08-04 18:10:00,
2013-08-04 13:15:00,79.1,60.5,30.14,ESE,112,0.0,0.0,53,0.00,,,0.00,877,Wunderground v.1.15,2013-08-04 18:15:00,
2013-08-04 13:25:00,79.1,60.5,30.14,ESE,112,0.0,0.0,53,0.00,,,0.00,849,Wunderground v.1.15,2013-08-04 18:25:00,
2013-08-04 13:30:00,79.2,58.4,30.14,ESE,112,0.0,0.0,49,0.00,,,0.00,814,Wunderground v.1.15,2013-08-04 18:30:00,
2013-08-04 13:35:00,78.7,56.8,30.14,ESE,112,0.0,0.0,47,0.00,,,0.00,742,Wunderground v.1.15,2013-08-04 18:35:00,
2013-08-04 13:40:00,78.5,58.3,30.14,ESE,112,0.0,0.0,50,0.00,,,0.00,789,Wunderground v.1.15,2013-08-04 18:40:00,
2013-08-04 13:44:00,78.4,58.2,30.14,ESE,112,0.0,0.0,50,0.00,,,0.00,983,Wunderground v.1.15,2013-08-04 18:44:00,
2013-08-04 13:50:00,78.4,58.8,30.14,ESE,112,0.0,0.0,51,0.00,,,0.00,979,Wunderground v.1.15,2013-08-04 18:50:00,
2013-08-04 14:00:00,79.1,57.7,30.13,ESE,112,0.0,0.0,48,0.00,,,0.00,919,Wunderground v.1.15,2013-08-04 19:00:00,
2013-08-04 14:05:00,79.2,59.0,30.13,ESE,112,0.0,0.0,50,0.00,,,0.00,946,Wunderground v.1.15,2013-08-04 19:05:00,
2013-08-04 14:09:00,79.3,59.0,30.12,ESE,112,0.0,0.0,50,0.00,,,0.00,947,Wunderground v.1.15,2013-08-04 19:09:00,
2013-08-04 14:15:00,79.6,59.9,30.13,ESE,112,0.0,0.0,51,0.00,,,0.00,962,Wunderground v.1.15,2013-08-04 19:15:00,
2013-08-04 14:19:00,80.2,62.0,30.13,ESE,112,0.0,0.0,54,0.00,,,0.00,872,Wunderground v.1.15,2013-08-04 19:19:00,
2013-08-04 14:30:00,80.4,58.3,30.12,ESE,112,0.0,0.0,47,0.00,,,0.00,714,Wunderground v.1.15,2013-08-04 19:30:00,
2013-08-04 14:35:00,80.2,59.3,30.12,ESE,112,0.0,0.0,49,0.00,,,0.00,854,Wunderground v.1.15,2013-08-04 19:35:00,
2013-08-04 14:39:00,80.0,59.1,30.12,ESE,112,0.0,0.0,49,0.00,,,0.00,886,Wunderground v.1.15,2013-08-04 19:39:00,
2013-08-04 14:45:00,79.9,59.6,30.12,ESE,112,1.0,1.0,50,0.00,,,0.00,740,Wunderground v.1.15,2013-08-04 19:45:00,
2013-08-04 14:49:00,79.7,59.4,30.12,ESE,112,1.0,1.0,50,0.00,,,0.00,844,Wunderground v.1.15,2013-08-04 19:49:00,
2013-08-04 14:55:00,79.6,58.2,30.12,ESE,112,0.0,1.0,48,0.00,,,0.00,759,Wunderground v.1.15,2013-08-04 19:55:00,
2013-08-04 15:05:00,79.6,59.3,30.12,ESE,112,0.0,0.0,50,0.00,,,0.00,510,Wunderground v.1.15,2013-08-04 20:05:00,
2013-08-04 15:10:00,79.7,58.8,30.12,ESE,112,0.0,0.0,49,0.00,,,0.00,742,Wunderground v.1.15,2013-08-04 20:10:00,
2013-08-04 15:15:00,79.4,58.6,30.12,ESE,112,0.0,0.0,49,0.00,,,0.00,823,Wunderground v.1.15,2013-08-04 20:15:00,
2013-08-04 15:19:00,79.6,60.4,30.11,ESE,112,0.0,0.0,52,0.00,,,0.00,896,Wunderground v.1.15,2013-08-04 20:19:00,
2013-08-04 15:25:00,79.8,59.5,30.11,ESE,112,0.0,0.0,50,0.00,,,0.00,640,Wunderground v.1.15,2013-08-04 20:25:00,
2013-08-04 15:34:00,80.1,60.9,30.11,ESE,116,0.0,0.0,52,0.00,,,0.00,638,Wunderground v.1.15,2013-08-04 20:34:00,
2013-08-04 15:40:00,79.9,60.2,30.11,South,186,1.0,5.0,51,0.00,,,0.00,779,Wunderground v.1.15,2013-08-04 20:40:00,
2013-08-04 15:45:00,79.8,61.1,30.11,South,187,2.0,5.0,53,0.00,,,0.00,816,Wunderground v.1.15,2013-08-04 20:45:00,
2013-08-04 15:50:00,79.9,60.2,30.11,South,187,1.0,2.0,51,0.00,,,0.00,656,Wunderground v.1.15,2013-08-04 20:50:00,
2013-08-04 15:55:00,80.0,58.5,30.11,South,187,2.0,2.0,48,0.00,,,0.00,721,Wunderground v.1.15,2013-08-04 20:55:00,
2013-08-04 16:00:00,80.1,59.2,30.12,South,186,1.0,1.0,49,0.00,,,0.00,619,Wunderground v.1.15,2013-08-04 21:00:00,
2013-08-04 16:05:00,80.3,58.8,30.11,South,186,0.0,1.0,48,0.00,,,0.00,566,Wunderground v.1.15,2013-08-04 21:05:00,
2013-08-04 16:10:00,80.4,58.3,30.11,South,186,1.0,2.0,47,0.00,,,0.00,357,Wunderground v.1.15,2013-08-04 21:10:00,
2013-08-04 16:15:00,80.0,57.4,30.11,South,186,1.0,2.0,46,0.00,,,0.00,584,Wunderground v.1.15,2013-08-04 21:15:00,
2013-08-04 16:20:00,79.7,57.7,30.11,South,186,1.0,1.0,47,0.00,,,0.00,461,Wunderground v.1.15,2013-08-04 21:20:00,
2013-08-04 16:25:00,79.8,57.2,30.11,South,186,0.0,1.0,46,0.00,,,0.00,668,Wunderground v.1.15,2013-08-04 21:25:00,
2013-08-04 16:30:00,80.1,61.4,30.11,South,186,0.0,0.0,53,0.00,,,0.00,615,Wunderground v.1.15,2013-08-04 21:30:00,
2013-08-04 16:40:00,80.2,56.9,30.10,South,186,2.0,2.0,45,0.00,,,0.00,617,Wunderground v.1.15,2013-08-04 21:40:00,
2013-08-04 16:45:00,80.3,58.2,30.10,South,186,1.0,2.0,47,0.00,,,0.00,568,Wunderground v.1.15,2013-08-04 21:45:00,
2013-08-04 16:49:00,80.3,57.6,30.10,South,186,1.0,1.0,46,0.00,,,0.00,431,Wunderground v.1.15,2013-08-04 21:49:00,
2013-08-04 16:54:00,80.4,60.6,30.09,South,186,0.0,1.0,51,0.00,,,0.00,536,Wunderground v.1.15,2013-08-04 21:54:00,
2013-08-04 17:00:00,80.4,58.9,30.09,South,186,1.0,2.0,48,0.00,,,0.00,552,Wunderground v.1.15,2013-08-04 22:00:00,
2013-08-04 17:10:00,80.6,61.3,30.09,South,186,1.0,1.0,52,0.00,,,0.00,548,Wunderground v.1.15,2013-08-04 22:10:00,
2013-08-04 17:15:00,80.7,60.3,30.08,South,186,1.0,1.0,50,0.00,,,0.00,439,Wunderground v.1.15,2013-08-04 22:15:00,
2013-08-04 17:20:00,80.8,59.3,30.08,South,186,0.0,0.0,48,0.00,,,0.00,482,Wunderground v.1.15,2013-08-04 22:20:00,
2013-08-04 17:25:00,81.1,59.0,30.08,South,186,0.0,0.0,47,0.00,,,0.00,494,Wunderground v.1.15,2013-08-04 22:25:00,
2013-08-04 17:30:00,81.4,59.2,30.08,South,186,0.0,0.0,47,0.00,,,0.00,471,Wunderground v.1.15,2013-08-04 22:30:00,
2013-08-04 17:35:00,81.7,59.5,30.08,South,186,0.0,0.0,47,0.00,,,0.00,446,Wunderground v.1.15,2013-08-04 22:35:00,
2013-08-04 17:45:00,81.8,60.2,30.08,South,186,0.0,0.0,48,0.00,,,0.00,410,Wunderground v.1.15,2013-08-04 22:45:00,
2013-08-04 17:50:00,81.9,60.3,30.08,South,186,0.0,0.0,48,0.00,,,0.00,394,Wunderground v.1.15,2013-08-04 22:50:00,
2013-08-04 17:54:00,81.9,59.7,30.08,South,186,0.0,0.0,47,0.00,,,0.00,380,Wunderground v.1.15,2013-08-04 22:54:00,
2013-08-04 18:00:00,81.9,59.7,30.08,South,186,0.0,0.0,47,0.00,,,0.00,366,Wunderground v.1.15,2013-08-04 23:00:00,
2013-08-04 18:10:00,81.4,60.4,30.08,South,186,0.0,1.0,49,0.00,,,0.00,330,Wunderground v.1.15,2013-08-04 23:10:00,
2013-08-04 18:15:00,80.7,58.6,30.07,South,186,1.0,1.0,47,0.00,,,0.00,315,Wunderground v.1.15,2013-08-04 23:15:00,
2013-08-04 18:20:00,80.2,59.9,30.07,South,186,0.0,0.0,50,0.00,,,0.00,302,Wunderground v.1.15,2013-08-04 23:20:00,
2013-08-04 18:25:00,80.1,60.3,30.07,South,186,0.0,0.0,51,0.00,,,0.00,225,Wunderground v.1.15,2013-08-04 23:25:00,
2013-08-04 18:30:00,79.8,60.1,30.07,South,186,0.0,0.0,51,0.00,,,0.00,276,Wunderground v.1.15,2013-08-04 23:30:00,
2013-08-04 18:40:00,79.2,60.1,30.07,South,186,1.0,1.0,52,0.00,,,0.00,227,Wunderground v.1.15,2013-08-04 23:40:00,
2013-08-04 18:45:00,78.7,61.7,30.07,South,186,1.0,1.0,56,0.00,,,0.00,204,Wunderground v.1.15,2013-08-04 23:45:00,
2013-08-04 18:50:00,78.5,59.9,30.08,South,186,0.0,0.0,53,0.00,,,0.00,185,Wunderground v.1.15,2013-08-04 23:50:00,
2013-08-04 18:55:00,78.3,61.3,30.08,South,186,0.0,0.0,56,0.00,,,0.00,165,Wunderground v.1.15,2013-08-04 23:55:00,
2013-08-04 19:00:00,78.2,62.2,30.08,South,186,0.0,0.0,58,0.00,,,0.00,146,Wunderground v.1.15,2013-08-05 00:00:00,
2013-08-04 19:10:00,78.0,63.0,30.08,South,186,0.0,0.0,60,0.00,,,0.00,97,Wunderground v.1.15,2013-08-05 00:10:00,
2013-08-04 19:15:00,78.0,63.9,30.07,South,186,0.0,0.0,62,0.00,,,0.00,98,Wunderground v.1.15,2013-08-05 00:15:00,
2013-08-04 19:24:00,77.4,63.8,30.07,South,186,0.0,0.0,63,0.00,,,0.00,72,Wunderground v.1.15,2013-08-05 00:24:00,
2013-08-04 19:30:00,77.0,64.3,30.07,South,186,0.0,0.0,65,0.00,,,0.00,60,Wunderground v.1.15,2013-08-05 00:30:00,
2013-08-04 19:35:00,76.6,64.8,30.07,South,186,0.0,0.0,67,0.00,,,0.00,47,Wunderground v.1.15,2013-08-05 00:35:00,
2013-08-04 19:40:00,76.0,65.1,30.07,South,186,0.0,0.0,69,0.00,,,0.00,35,Wunderground v.1.15,2013-08-05 00:40:00,
2013-08-04 19:45:00,75.4,65.3,30.06,South,186,0.0,0.0,71,0.00,,,0.00,26,Wunderground v.1.15,2013-08-05 00:45:00,
2013-08-04 19:50:00,75.1,65.9,30.06,South,186,0.0,0.0,73,0.00,,,0.00,21,Wunderground v.1.15,2013-08-05 00:50:00,
2013-08-04 19:55:00,74.8,65.2,30.06,South,186,0.0,0.0,72,0.00,,,0.00,16,Wunderground v.1.15,2013-08-05 00:55:00,
2013-08-04 20:00:00,74.2,65.0,30.06,South,186,0.0,0.0,73,0.00,,,0.00,12,Wunderground v.1.15,2013-08-05 01:00:00,
2013-08-04 20:09:00,73.2,64.8,30.06,South,186,0.0,0.0,75,0.00,,,0.00,7,Wunderground v.1.15,2013-08-05 01:09:00,
2013-08-04 20:15:00,72.9,64.9,30.06,South,186,0.0,0.0,76,0.00,,,0.00,0,Wunderground v.1.15,2013-08-05 01:15:00,
2013-08-04 20:20:00,72.5,64.9,30.06,South,186,0.0,0.0,77,0.00,,,0.00,0,Wunderground v.1.15,2013-08-05 01:20:00,
2013-08-04 20:30:00,71.8,63.8,30.06,South,186,0.0,0.0,76,0.00,,,0.00,0,Wunderground v.1.15,2013-08-05 01:30:00,
2013-08-04 20:35:00,71.4,63.8,30.06,South,186,0.0,0.0,77,0.00,,,0.00,0,Wunderground v.1.15,2013-08-05 01:35:00,
2013-08-04 20:40:00,70.9,64.1,30.06,South,186,0.0,0.0,79,0.00,,,0.00,0,Wunderground v.1.15,2013-08-05 01:40:00,
2013-08-04 20:44:00,70.5,63.7,30.06,South,186,0.0,0.0,79,0.00,,,0.00,0,Wunderground v.1.15,2013-08-05 01:44:00,
2013-08-04 20:50:00,70.2,63.7,30.07,South,186,0.0,0.0,80,0.00,,,0.00,0,Wunderground v.1.15,2013-08-05 01:50:00,
2013-08-04 20:54:00,69.8,63.3,30.06,South,186,0.0,0.0,80,0.00,,,0.00,0,Wunderground v.1.15,2013-08-05 01:54:00,
2013-08-04 21:05:00,69.0,63.6,30.06,South,186,0.0,0.0,83,0.00,,,0.00,0,Wunderground v.1.15,2013-08-05 02:05:00,
2013-08-04 21:09:00,68.6,63.2,30.07,South,186,0.0,0.0,83,0.00,,,0.00,0,Wunderground v.1.15,2013-08-05 02:09:00,
2013-08-04 21:15:00,68.1,63.1,30.07,South,186,0.0,0.0,84,0.00,,,0.00,0,Wunderground v.1.15,2013-08-05 02:15:00,
2013-08-04 21:20:00,67.6,62.9,30.07,South,186,0.0,0.0,85,0.00,,,0.00,0,Wunderground v.1.15,2013-08-05 02:20:00,
2013-08-04 21:25:00,67.2,62.9,30.07,South,186,0.0,0.0,86,0.00,,,0.00,0,Wunderground v.1.15,2013-08-05 02:25:00,
2013-08-04 21:34:00,66.7,62.7,30.07,South,186,0.0,0.0,87,0.00,,,0.00,0,Wunderground v.1.15,2013-08-05 02:34:00,
2013-08-04 21:40:00,66.5,62.8,30.08,South,186,0.0,0.0,88,0.00,,,0.00,0,Wunderground v.1.15,2013-08-05 02:40:00,
2013-08-04 21:44:00,66.4,62.7,30.07,South,186,0.0,0.0,88,0.00,,,0.00,0,Wunderground v.1.15,2013-08-05 02:44:00,
2013-08-04 21:50:00,66.2,62.5,30.08,South,186,0.0,0.0,88,0.00,,,0.00,0,Wunderground v.1.15,2013-08-05 02:50:00,
2013-08-04 21:55:00,66.0,62.3,30.08,South,186,0.0,0.0,88,0.00,,,0.00,0,Wunderground v.1.15,2013-08-05 02:55:00,
2013-08-04 22:00:00,65.8,62.1,30.08,South,186,0.0,0.0,88,0.00,,,0.00,0,Wunderground v.1.15,2013-08-05 03:00:00,
2013-08-04 22:04:00,65.6,61.9,30.08,South,186,0.0,0.0,88,0.00,,,0.00,0,Wunderground v.1.15,2013-08-05 03:04:00,
2013-08-04 22:10:00,65.4,62.1,30.08,South,186,0.0,0.0,89,0.00,,,0.00,0,Wunderground v.1.15,2013-08-05 03:10:00,
2013-08-04 22:20:00,65.3,62.3,30.08,South,186,0.0,0.0,90,0.00,,,0.00,0,Wunderground v.1.15,2013-08-05 03:20:00,
2013-08-04 22:25:00,65.2,62.5,30.08,South,186,0.0,0.0,91,0.00,,,0.00,0,Wunderground v.1.15,2013-08-05 03:25:00,
2013-08-04 22:30:00,65.0,62.0,30.08,South,186,0.0,0.0,90,0.00,,,0.00,0,Wunderground v.1.15,2013-08-05 03:30:00,
2013-08-04 22:39:00,64.4,60.4,30.08,South,186,1.0,1.0,87,0.00,,,0.00,0,Wunderground v.1.15,2013-08-05 03:39:00,
2013-08-04 22:45:00,64.3,60.3,30.08,South,186,0.0,1.0,87,0.00,,,0.00,0,Wunderground v.1.15,2013-08-05 03:45:00,
2013-08-04 22:50:00,64.2,60.2,30.08,South,186,0.0,0.0,87,0.00,,,0.00,0,Wunderground v.1.15,2013-08-05 03:50:00,
2013-08-04 22:55:00,64.2,60.6,30.08,South,186,0.0,0.0,88,0.00,,,0.00,0,Wunderground v.1.15,2013-08-05 03:55:00,
2013-08-04 23:00:00,64.1,60.5,30.08,South,186,0.0,0.0,88,0.00,,,0.00,0,Wunderground v.1.15,2013-08-05 04:00:00,
2013-08-04 23:05:00,64.0,60.4,30.08,South,186,0.0,0.0,88,0.00,,,0.00,0,Wunderground v.1.15,2013-08-05 04:05:00,
2013-08-04 23:14:00,63.8,60.2,30.09,South,186,0.0,0.0,88,0.00,,,0.00,0,Wunderground v.1.15,2013-08-05 04:14:00,
2013-08-04 23:20:00,63.7,60.1,30.08,South,186,0.0,0.0,88,0.00,,,0.00,0,Wunderground v.1.15,2013-08-05 04:20:00,
2013-08-04 23:25:00,63.5,59.9,30.08,South,186,0.0,0.0,88,0.00,,,0.00,0,Wunderground v.1.15,2013-08-05 04:25:00,
2013-08-04 23:30:00,63.4,60.1,30.08,South,186,0.0,0.0,89,0.00,,,0.00,0,Wunderground v.1.15,2013-08-05 04:30:00,
2013-08-04 23:35:00,63.2,59.9,30.08,South,186,0.0,0.0,89,0.00,,,0.00,0,Wunderground v.1.15,2013-08-05 04:35:00,
2013-08-04 23:45:00,62.8,59.5,30.08,South,186,0.0,0.0,89,0.00,,,0.00,0,Wunderground v.1.15,2013-08-05 04:45:00,
2013-08-04 23:50:00,62.7,59.4,30.08,South,186,0.0,0.0,89,0.00,,,0.00,0,Wunderground v.1.15,2013-08-05 04:50:00,
2013-08-04 23:55:00,62.5,59.5,30.08,South,186,0.0,0.0,90,0.00,,,0.00,0,Wunderground v.1.15,2013-08-05 04:55:00,